owner,sensor,date,latitude,longitude,vertical_datum,direction_of_sea_water_velocity,sea_water_speed,upward_sea_water_velocity,qcFlag 
TABS,ioos:station:wmo:42048:1,2006-06-01T00:00:00Z,27.9396,-96.8429,2.0,230.3647392,39.55204799,-99999.0,'11111222,11111222,99999999' 
TABS,ioos:station:wmo:42048:1,2006-06-01T00:30:00Z,27.9396,-96.8429,2.0,229.2678555,41.899142,-99999.0,'11111222,11111222,99999999' 
TABS,ioos:station:wmo:42048:1,2006-06-01T01:00:00Z,27.9396,-96.8429,2.0,223.8847767,45.42606851,-99999.0,'11111222,11111222,99999999' 
TABS,ioos:station:wmo:42048:1,2006-06-01T01:30:00Z,27.9396,-96.8429,2.0,228.2492296,48.02613143,-99999.0,'11111222,11111222,99999999' 
TABS,ioos:station:wmo:42048:1,2006-06-01T02:00:00Z,27.9396,-96.8429,2.0,224.8829135,41.63453374,-99999.0,'11111222,11111222,99999999' 
TABS,ioos:station:wmo:42048:1,2006-06-01T04:00:00Z,27.9396,-96.8429,2.0,216.9880108,38.71008267,-99999.0,'11111222,11111222,99999999' 
TABS,ioos:station:wmo:42048:1,2006-06-01T04:30:00Z,27.9396,-96.8429,2.0,225.044675,36.02003054,-99999.0,'11111222,11111222,99999999' 
TABS,ioos:station:wmo:42048:1,2006-06-01T05:00:00Z,27.9396,-96.8429,2.0,223.7118091,49.70802149,-99999.0,'11111222,11111222,99999999' 
TABS,ioos:station:wmo:42048:1,2006-06-01T05:30:00Z,27.9396,-96.8429,2.0,220.6753466,47.63905331,-99999.0,'11111222,11111222,99999999' 
TABS,ioos:station:wmo:42048:1,2006-06-01T06:00:00Z,27.9396,-96.8429,2.0,216.5073704,45.87091671,-99999.0,'11111222,11111222,99999999' 
TABS,ioos:station:wmo:42048:1,2006-06-01T07:30:00Z,27.9396,-96.8429,2.0,223.3183677,46.03125569,-99999.0,'11111222,11111222,99999999' 
TABS,ioos:station:wmo:42048:1,2006-06-01T08:00:00Z,27.9396,-96.8429,2.0,227.3000835,42.98430644,-99999.0,'11111222,11111222,99999999' 
TABS,ioos:station:wmo:42048:1,2006-06-01T09:00:00Z,27.9396,-96.8429,2.0,231.4943673,30.69450277,-99999.0,'11111222,11111222,99999999' 
TABS,ioos:station:wmo:42048:1,2006-06-01T09:30:00Z,27.9396,-96.8429,2.0,229.0821833,37.14665261,-99999.0,'11111222,11111222,99999999' 
TABS,ioos:station:wmo:42048:1,2006-06-01T10:00:00Z,27.9396,-96.8429,2.0,229.4436711,38.41948074,-99999.0,'11111222,11111222,99999999' 
TABS,ioos:station:wmo:42048:1,2006-06-01T10:30:00Z,27.9396,-96.8429,2.0,230.7799257,38.19411735,-99999.0,'11111222,11111222,99999999' 
TABS,ioos:station:wmo:42048:1,2006-06-01T11:00:00Z,27.9396,-96.8429,2.0,229.8732395,37.95328708,-99999.0,'11111222,11111222,99999999' 
TABS,ioos:station:wmo:42048:1,2006-06-01T11:30:00Z,27.9396,-96.8429,2.0,228.1819405,36.93965078,-99999.0,'11111222,11111222,99999999' 
TABS,ioos:station:wmo:42048:1,2006-06-01T13:00:00Z,27.9396,-96.8429,2.0,238.1973714,34.68758856,-99999.0,'11111222,11111222,99999999' 
TABS,ioos:station:wmo:42048:1,2006-06-01T13:30:00Z,27.9396,-96.8429,2.0,231.9405438,32.474995,-99999.0,'11111222,11111222,99999999' 
TABS,ioos:station:wmo:42048:1,2006-06-01T14:00:00Z,27.9396,-96.8429,2.0,227.0683456,28.5998951,-99999.0,'11111222,11111222,99999999' 
TABS,ioos:station:wmo:42048:1,2006-06-01T14:30:00Z,27.9396,-96.8429,2.0,232.9185203,31.46221384,-99999.0,'11111222,11111222,99999999' 
TABS,ioos:station:wmo:42048:1,2006-06-01T15:00:00Z,27.9396,-96.8429,2.0,211.09646,27.3386631,-99999.0,'11111222,11111222,99999999' 
TABS,ioos:station:wmo:42048:1,2006-06-01T15:30:00Z,27.9396,-96.8429,2.0,208.8292199,28.1830481,-99999.0,'11111222,11111222,99999999' 
TABS,ioos:station:wmo:42048:1,2006-06-01T16:00:00Z,27.9396,-96.8429,2.0,207.4232385,29.55071911,-99999.0,'11111222,11111222,99999999' 
TABS,ioos:station:wmo:42048:1,2006-06-01T16:30:00Z,27.9396,-96.8429,2.0,204.1547984,28.3963466,-99999.0,'11111222,11111222,99999999' 
TABS,ioos:station:wmo:42048:1,2006-06-01T17:00:00Z,27.9396,-96.8429,2.0,191.1952723,29.46062457,-99999.0,'11111222,11111222,99999999' 
TABS,ioos:station:wmo:42048:1,2006-06-01T17:30:00Z,27.9396,-96.8429,2.0,199.4294544,30.78308789,-99999.0,'11111222,11111222,99999999' 
TABS,ioos:station:wmo:42048:1,2006-06-01T18:00:00Z,27.9396,-96.8429,2.0,200.8966383,33.64290267,-99999.0,'11111222,11111222,99999999' 
TABS,ioos:station:wmo:42048:1,2006-06-01T18:30:00Z,27.9396,-96.8429,2.0,212.4370478,33.74493147,-99999.0,'11111222,11111222,99999999' 
TABS,ioos:station:wmo:42048:1,2006-06-01T19:00:00Z,27.9396,-96.8429,2.0,211.9271244,36.60812068,-99999.0,'11111222,11111222,99999999' 
TABS,ioos:station:wmo:42048:1,2006-06-01T19:30:00Z,27.9396,-96.8429,2.0,219.9630816,32.5394161,-99999.0,'11111222,11111222,99999999' 
TABS,ioos:station:wmo:42048:1,2006-06-01T20:00:00Z,27.9396,-96.8429,2.0,220.5288739,36.1937909,-99999.0,'11111222,11111222,99999999' 
TABS,ioos:station:wmo:42048:1,2006-06-01T20:30:00Z,27.9396,-96.8429,2.0,225.8496419,37.65757958,-99999.0,'11111222,11111222,99999999' 
TABS,ioos:station:wmo:42048:1,2006-06-01T21:00:00Z,27.9396,-96.8429,2.0,227.4954242,34.10075072,-99999.0,'11111222,11111222,99999999' 
TABS,ioos:station:wmo:42048:1,2006-06-01T21:30:00Z,27.9396,-96.8429,2.0,236.8017546,35.19425237,-99999.0,'11111222,11111222,99999999' 
TABS,ioos:station:wmo:42048:1,2006-06-01T22:00:00Z,27.9396,-96.8429,2.0,239.4589192,39.02385168,-99999.0,'11111222,11111222,99999999' 
TABS,ioos:station:wmo:42048:1,2006-06-01T22:30:00Z,27.9396,-96.8429,2.0,236.1363007,37.59775126,-99999.0,'11111222,11111222,99999999' 
TABS,ioos:station:wmo:42048:1,2006-06-01T23:00:00Z,27.9396,-96.8429,2.0,238.9784688,37.64395835,-99999.0,'11111222,11111222,99999999' 
TABS,ioos:station:wmo:42048:1,2006-06-01T23:30:00Z,27.9396,-96.8429,2.0,239.754728,35.81515322,-99999.0,'11111222,11111222,99999999' 
TABS,ioos:station:wmo:42048:1,2006-06-02T00:00:00Z,27.9396,-96.8429,2.0,238.5628632,37.59891621,-99999.0,'11111222,11111222,99999999' 
TABS,ioos:station:wmo:42048:1,2006-06-02T00:30:00Z,27.9396,-96.8429,2.0,245.4855381,41.23714951,-99999.0,'11111222,11111222,99999999' 
TABS,ioos:station:wmo:42048:1,2006-06-02T01:00:00Z,27.9396,-96.8429,2.0,239.260217,33.72888525,-99999.0,'11111222,11111222,99999999' 
TABS,ioos:station:wmo:42048:1,2006-06-02T01:30:00Z,27.9396,-96.8429,2.0,235.7577386,35.41925042,-99999.0,'11111222,11111222,99999999' 
TABS,ioos:station:wmo:42048:1,2006-06-02T02:00:00Z,27.9396,-96.8429,2.0,237.1744193,32.8919215,-99999.0,'11111222,11111222,99999999' 
TABS,ioos:station:wmo:42048:1,2006-06-02T02:30:00Z,27.9396,-96.8429,2.0,234.2929712,29.55609074,-99999.0,'11111222,11111222,99999999' 
TABS,ioos:station:wmo:42048:1,2006-06-02T03:00:00Z,27.9396,-96.8429,2.0,229.5859223,28.82912763,-99999.0,'11111222,11111222,99999999' 
TABS,ioos:station:wmo:42048:1,2006-06-02T03:30:00Z,27.9396,-96.8429,2.0,232.6700256,30.40897894,-99999.0,'11111222,11111222,99999999' 
TABS,ioos:station:wmo:42048:1,2006-06-02T04:00:00Z,27.9396,-96.8429,2.0,235.4202275,31.6272683,-99999.0,'11111222,11111222,99999999' 
TABS,ioos:station:wmo:42048:1,2006-06-02T05:00:00Z,27.9396,-96.8429,2.0,231.7132322,25.4037635,-99999.0,'11111222,11111222,99999999' 
TABS,ioos:station:wmo:42048:1,2006-06-02T05:30:00Z,27.9396,-96.8429,2.0,225.8160178,21.83767387,-99999.0,'11111222,11111222,99999999' 
TABS,ioos:station:wmo:42048:1,2006-06-02T06:00:00Z,27.9396,-96.8429,2.0,212.0185148,22.63307535,-99999.0,'11111222,11111222,99999999' 
TABS,ioos:station:wmo:42048:1,2006-06-02T06:30:00Z,27.9396,-96.8429,2.0,218.7344758,22.67801138,-99999.0,'11111222,11111222,99999999' 
TABS,ioos:station:wmo:42048:1,2006-06-02T07:00:00Z,27.9396,-96.8429,2.0,211.8811285,19.59622668,-99999.0,'11111222,11111222,99999999' 
TABS,ioos:station:wmo:42048:1,2006-06-02T07:30:00Z,27.9396,-96.8429,2.0,226.9675993,23.88601264,-99999.0,'11111222,11111222,99999999' 
TABS,ioos:station:wmo:42048:1,2006-06-02T08:00:00Z,27.9396,-96.8429,2.0,223.9187627,18.36683152,-99999.0,'11111222,11111222,99999999' 
TABS,ioos:station:wmo:42048:1,2006-06-02T08:30:00Z,27.9396,-96.8429,2.0,213.1498973,21.487266,-99999.0,'11111222,11111222,99999999' 
TABS,ioos:station:wmo:42048:1,2006-06-02T09:30:00Z,27.9396,-96.8429,2.0,218.0890206,22.27304425,-99999.0,'11111222,11111222,99999999' 
TABS,ioos:station:wmo:42048:1,2006-06-02T10:30:00Z,27.9396,-96.8429,2.0,221.6158685,21.92317723,-99999.0,'11111222,11111222,99999999' 
TABS,ioos:station:wmo:42048:1,2006-06-02T11:00:00Z,27.9396,-96.8429,2.0,227.645837,20.67663657,-99999.0,'11111222,11111222,99999999' 
TABS,ioos:station:wmo:42048:1,2006-06-02T12:00:00Z,27.9396,-96.8429,2.0,220.3751003,20.08357787,-99999.0,'11111222,11111222,99999999' 
TABS,ioos:station:wmo:42048:1,2006-06-02T12:30:00Z,27.9396,-96.8429,2.0,221.2072258,14.96687008,-99999.0,'11111222,11111222,99999999' 
TABS,ioos:station:wmo:42048:1,2006-06-02T13:30:00Z,27.9396,-96.8429,2.0,227.9717333,15.68351045,-99999.0,'11111222,11111222,99999999' 
TABS,ioos:station:wmo:42048:1,2006-06-02T14:00:00Z,27.9396,-96.8429,2.0,231.1020477,25.2097858,-99999.0,'11111222,11111222,99999999' 
TABS,ioos:station:wmo:42048:1,2006-06-02T14:30:00Z,27.9396,-96.8429,2.0,233.1569263,25.31600284,-99999.0,'11111222,11111222,99999999' 
TABS,ioos:station:wmo:42048:1,2006-06-02T15:00:00Z,27.9396,-96.8429,2.0,230.4115408,29.68940552,-99999.0,'11111222,11111222,99999999' 
TABS,ioos:station:wmo:42048:1,2006-06-02T15:30:00Z,27.9396,-96.8429,2.0,231.6106582,33.0436136,-99999.0,'11111222,11111222,99999999' 
TABS,ioos:station:wmo:42048:1,2006-06-02T16:00:00Z,27.9396,-96.8429,2.0,230.9689386,35.22104485,-99999.0,'11111222,11111222,99999999' 
TABS,ioos:station:wmo:42048:1,2006-06-02T16:30:00Z,27.9396,-96.8429,2.0,230.6212329,34.86541123,-99999.0,'11111222,11111222,99999999' 
TABS,ioos:station:wmo:42048:1,2006-06-02T17:00:00Z,27.9396,-96.8429,2.0,226.9520511,33.41605153,-99999.0,'11111222,11111222,99999999' 
TABS,ioos:station:wmo:42048:1,2006-06-02T17:30:00Z,27.9396,-96.8429,2.0,231.8601281,34.57048741,-99999.0,'11111222,11111222,99999999' 
TABS,ioos:station:wmo:42048:1,2006-06-02T18:30:00Z,27.9396,-96.8429,2.0,230.878278,29.27259811,-99999.0,'11111222,11111222,99999999' 
TABS,ioos:station:wmo:42048:1,2006-06-02T19:30:00Z,27.9396,-96.8429,2.0,236.3374823,28.48663195,-99999.0,'11111222,11111222,99999999' 
TABS,ioos:station:wmo:42048:1,2006-06-02T20:00:00Z,27.9396,-96.8429,2.0,236.2019222,29.51842306,-99999.0,'11111222,11111222,99999999' 
TABS,ioos:station:wmo:42048:1,2006-06-02T20:30:00Z,27.9396,-96.8429,2.0,238.1779173,26.45662299,-99999.0,'11111222,11111222,99999999' 
TABS,ioos:station:wmo:42048:1,2006-06-02T21:00:00Z,27.9396,-96.8429,2.0,236.5867613,24.07981728,-99999.0,'11111222,11111222,99999999' 
TABS,ioos:station:wmo:42048:1,2006-06-02T22:00:00Z,27.9396,-96.8429,2.0,238.4831884,19.37852678,-99999.0,'11111222,11111222,99999999' 
TABS,ioos:station:wmo:42048:1,2006-06-02T22:30:00Z,27.9396,-96.8429,2.0,232.339922,20.31192999,-99999.0,'11111222,11111222,99999999' 
TABS,ioos:station:wmo:42048:1,2006-06-02T23:00:00Z,27.9396,-96.8429,2.0,231.3087609,20.1401713,-99999.0,'11111222,11111222,99999999' 
TABS,ioos:station:wmo:42048:1,2006-06-02T23:30:00Z,27.9396,-96.8429,2.0,226.0614871,16.78959797,-99999.0,'11111222,11111222,99999999' 
TABS,ioos:station:wmo:42048:1,2006-06-03T00:00:00Z,27.9396,-96.8429,2.0,229.9749322,19.07891506,-99999.0,'11111222,11111222,99999999' 
TABS,ioos:station:wmo:42048:1,2006-06-03T00:30:00Z,27.9396,-96.8429,2.0,228.5032078,18.05081716,-99999.0,'11111222,11111222,99999999' 
TABS,ioos:station:wmo:42048:1,2006-06-03T01:00:00Z,27.9396,-96.8429,2.0,217.3839482,16.48666431,-99999.0,'11111222,11111222,99999999' 
TABS,ioos:station:wmo:42048:1,2006-06-03T02:00:00Z,27.9396,-96.8429,2.0,227.6409749,19.94746099,-99999.0,'11111222,11111222,99999999' 
TABS,ioos:station:wmo:42048:1,2006-06-03T02:30:00Z,27.9396,-96.8429,2.0,227.3199566,17.46571499,-99999.0,'11111222,11111222,99999999' 
TABS,ioos:station:wmo:42048:1,2006-06-03T03:00:00Z,27.9396,-96.8429,2.0,221.071623,14.65740086,-99999.0,'11111222,11111222,99999999' 
TABS,ioos:station:wmo:42048:1,2006-06-03T03:30:00Z,27.9396,-96.8429,2.0,214.3399893,14.90852776,-99999.0,'11111222,11111222,99999999' 
TABS,ioos:station:wmo:42048:1,2006-06-03T04:00:00Z,27.9396,-96.8429,2.0,222.5947415,13.31240399,-99999.0,'11111222,11111222,99999999' 
TABS,ioos:station:wmo:42048:1,2006-06-03T04:30:00Z,27.9396,-96.8429,2.0,225.5846276,13.15994301,-99999.0,'11111222,11111222,99999999' 
TABS,ioos:station:wmo:42048:1,2006-06-03T05:00:00Z,27.9396,-96.8429,2.0,232.698798,14.09239866,-99999.0,'11111222,11111222,99999999' 
TABS,ioos:station:wmo:42048:1,2006-06-03T05:30:00Z,27.9396,-96.8429,2.0,212.6732837,15.63391186,-99999.0,'11111222,11111222,99999999' 
TABS,ioos:station:wmo:42048:1,2006-06-03T06:00:00Z,27.9396,-96.8429,2.0,210.7925396,12.07183913,-99999.0,'11111222,11111222,99999999' 
TABS,ioos:station:wmo:42048:1,2006-06-03T06:30:00Z,27.9396,-96.8429,2.0,217.2646186,13.34431714,-99999.0,'11111222,11111222,99999999' 
TABS,ioos:station:wmo:42048:1,2006-06-03T07:00:00Z,27.9396,-96.8429,2.0,217.6332609,12.90514626,-99999.0,'11111222,11111222,99999999' 
TABS,ioos:station:wmo:42048:1,2006-06-03T07:30:00Z,27.9396,-96.8429,2.0,214.3733628,11.15858862,-99999.0,'11111222,11111222,99999999' 
TABS,ioos:station:wmo:42048:1,2006-06-03T08:00:00Z,27.9396,-96.8429,2.0,214.3308393,12.64240879,-99999.0,'11111222,11111222,99999999' 
TABS,ioos:station:wmo:42048:1,2006-06-03T08:30:00Z,27.9396,-96.8429,2.0,219.2728504,12.40090722,-99999.0,'11111222,11111222,99999999' 
TABS,ioos:station:wmo:42048:1,2006-06-03T09:00:00Z,27.9396,-96.8429,2.0,266.575067,7.533452064,-99999.0,'11133222,11111222,99999999' 
TABS,ioos:station:wmo:42048:1,2006-06-03T09:30:00Z,27.9396,-96.8429,2.0,221.2292058,12.36577939,-99999.0,'11111222,11111222,99999999' 
TABS,ioos:station:wmo:42048:1,2006-06-03T10:00:00Z,27.9396,-96.8429,2.0,216.0923003,13.56324814,-99999.0,'11111222,11111222,99999999' 
TABS,ioos:station:wmo:42048:1,2006-06-03T10:30:00Z,27.9396,-96.8429,2.0,215.5485923,11.88515881,-99999.0,'11111222,11111222,99999999' 
TABS,ioos:station:wmo:42048:1,2006-06-03T11:00:00Z,27.9396,-96.8429,2.0,227.5453795,10.02960119,-99999.0,'11111222,11111222,99999999' 
TABS,ioos:station:wmo:42048:1,2006-06-03T11:30:00Z,27.9396,-96.8429,2.0,228.8277567,11.54452684,-99999.0,'11111222,11111222,99999999' 
TABS,ioos:station:wmo:42048:1,2006-06-03T12:00:00Z,27.9396,-96.8429,2.0,210.1383373,11.55162759,-99999.0,'11111222,11111222,99999999' 
TABS,ioos:station:wmo:42048:1,2006-06-03T12:30:00Z,27.9396,-96.8429,2.0,222.5636655,13.80813166,-99999.0,'11111222,11111222,99999999' 
TABS,ioos:station:wmo:42048:1,2006-06-03T13:00:00Z,27.9396,-96.8429,2.0,230.2495328,10.58737456,-99999.0,'11111222,11111222,99999999' 
TABS,ioos:station:wmo:42048:1,2006-06-03T13:30:00Z,27.9396,-96.8429,2.0,224.9996843,12.9400541,-99999.0,'11111222,11111222,99999999' 
TABS,ioos:station:wmo:42048:1,2006-06-03T14:00:00Z,27.9396,-96.8429,2.0,221.2659835,11.40154814,-99999.0,'11111222,11111222,99999999' 
TABS,ioos:station:wmo:42048:1,2006-06-03T14:30:00Z,27.9396,-96.8429,2.0,223.8565818,15.24118434,-99999.0,'11111222,11111222,99999999' 
TABS,ioos:station:wmo:42048:1,2006-06-03T15:00:00Z,27.9396,-96.8429,2.0,235.7952563,11.7407027,-99999.0,'11111222,11111222,99999999' 
TABS,ioos:station:wmo:42048:1,2006-06-03T15:30:00Z,27.9396,-96.8429,2.0,224.1332101,11.6898118,-99999.0,'11111222,11111222,99999999' 
TABS,ioos:station:wmo:42048:1,2006-06-03T16:00:00Z,27.9396,-96.8429,2.0,227.1552678,13.91156354,-99999.0,'11111222,11111222,99999999' 
TABS,ioos:station:wmo:42048:1,2006-06-03T16:30:00Z,27.9396,-96.8429,2.0,225.4184026,11.6110034,-99999.0,'11111222,11111222,99999999' 
TABS,ioos:station:wmo:42048:1,2006-06-03T17:00:00Z,27.9396,-96.8429,2.0,217.8705824,12.24986939,-99999.0,'11111222,11111222,99999999' 
TABS,ioos:station:wmo:42048:1,2006-06-03T17:30:00Z,27.9396,-96.8429,2.0,223.4151,12.01834015,-99999.0,'11111222,11111222,99999999' 
TABS,ioos:station:wmo:42048:1,2006-06-03T18:00:00Z,27.9396,-96.8429,2.0,220.4344326,13.05926874,-99999.0,'11111222,11111222,99999999' 
TABS,ioos:station:wmo:42048:1,2006-06-03T18:30:00Z,27.9396,-96.8429,2.0,222.7237475,11.03957427,-99999.0,'11111222,11111222,99999999' 
TABS,ioos:station:wmo:42048:1,2006-06-03T19:00:00Z,27.9396,-96.8429,2.0,225.1291658,12.51582199,-99999.0,'11111222,11111222,99999999' 
TABS,ioos:station:wmo:42048:1,2006-06-03T19:30:00Z,27.9396,-96.8429,2.0,240.7629913,13.14447793,-99999.0,'11111222,11111222,99999999' 
TABS,ioos:station:wmo:42048:1,2006-06-03T20:00:00Z,27.9396,-96.8429,2.0,241.5002627,11.52679053,-99999.0,'11111222,11111222,99999999' 
TABS,ioos:station:wmo:42048:1,2006-06-03T20:30:00Z,27.9396,-96.8429,2.0,236.5073881,14.46112029,-99999.0,'11111222,11111222,99999999' 
TABS,ioos:station:wmo:42048:1,2006-06-03T21:00:00Z,27.9396,-96.8429,2.0,244.6576584,12.99004234,-99999.0,'11111222,11111222,99999999' 
TABS,ioos:station:wmo:42048:1,2006-06-03T21:30:00Z,27.9396,-96.8429,2.0,243.5570912,14.64180658,-99999.0,'11111222,11111222,99999999' 
TABS,ioos:station:wmo:42048:1,2006-06-03T22:00:00Z,27.9396,-96.8429,2.0,272.1324696,9.676698817,-99999.0,'11133222,11111222,99999999' 
TABS,ioos:station:wmo:42048:1,2006-06-03T22:30:00Z,27.9396,-96.8429,2.0,323.6159437,7.316262707,-99999.0,'11133222,11111222,99999999' 
TABS,ioos:station:wmo:42048:1,2006-06-03T23:00:00Z,27.9396,-96.8429,2.0,1.900726098,6.633649071,-99999.0,'11133222,11111222,99999999' 
TABS,ioos:station:wmo:42048:1,2006-06-03T23:30:00Z,27.9396,-96.8429,2.0,352.7521458,8.084602649,-99999.0,'11133222,11111222,99999999' 
TABS,ioos:station:wmo:42048:1,2006-06-04T00:00:00Z,27.9396,-96.8429,2.0,357.0848952,6.488397337,-99999.0,'11133222,11111222,99999999' 
TABS,ioos:station:wmo:42048:1,2006-06-04T00:30:00Z,27.9396,-96.8429,2.0,4.685326985,12.12049916,-99999.0,'11111222,11111222,99999999' 
TABS,ioos:station:wmo:42048:1,2006-06-04T01:30:00Z,27.9396,-96.8429,2.0,11.26829485,10.74716707,-99999.0,'11111222,11111222,99999999' 
TABS,ioos:station:wmo:42048:1,2006-06-04T02:30:00Z,27.9396,-96.8429,2.0,30.54845425,10.88015625,-99999.0,'11111222,11111222,99999999' 
TABS,ioos:station:wmo:42048:1,2006-06-04T03:00:00Z,27.9396,-96.8429,2.0,37.87510554,10.14756128,-99999.0,'11111222,11111222,99999999' 
TABS,ioos:station:wmo:42048:1,2006-06-04T03:30:00Z,27.9396,-96.8429,2.0,41.41007759,11.0667249,-99999.0,'11111222,11111222,99999999' 
TABS,ioos:station:wmo:42048:1,2006-06-04T04:00:00Z,27.9396,-96.8429,2.0,37.0043158,11.94603281,-99999.0,'11111222,11111222,99999999' 
TABS,ioos:station:wmo:42048:1,2006-06-04T04:30:00Z,27.9396,-96.8429,2.0,42.57083759,11.67775663,-99999.0,'11111222,11111222,99999999' 
TABS,ioos:station:wmo:42048:1,2006-06-04T05:00:00Z,27.9396,-96.8429,2.0,45.4769902,11.89394804,-99999.0,'11111222,11111222,99999999' 
TABS,ioos:station:wmo:42048:1,2006-06-04T06:00:00Z,27.9396,-96.8429,2.0,55.01273425,10.04542184,-99999.0,'11111222,11111222,99999999' 
TABS,ioos:station:wmo:42048:1,2006-06-04T06:30:00Z,27.9396,-96.8429,2.0,62.25517588,9.77368917,-99999.0,'11133222,11111222,99999999' 
TABS,ioos:station:wmo:42048:1,2006-06-04T07:00:00Z,27.9396,-96.8429,2.0,62.13248107,10.03359357,-99999.0,'11111222,11111222,99999999' 
TABS,ioos:station:wmo:42048:1,2006-06-04T07:30:00Z,27.9396,-96.8429,2.0,47.69918732,9.910489393,-99999.0,'11133222,11111222,99999999' 
TABS,ioos:station:wmo:42048:1,2006-06-04T08:00:00Z,27.9396,-96.8429,2.0,47.96325173,9.43835261,-99999.0,'11133222,11111222,99999999' 
TABS,ioos:station:wmo:42048:1,2006-06-04T08:30:00Z,27.9396,-96.8429,2.0,50.05599314,10.59124166,-99999.0,'11111222,11111222,99999999' 
TABS,ioos:station:wmo:42048:1,2006-06-04T09:00:00Z,27.9396,-96.8429,2.0,41.3712249,11.06011302,-99999.0,'11111222,11111222,99999999' 
TABS,ioos:station:wmo:42048:1,2006-06-04T09:30:00Z,27.9396,-96.8429,2.0,48.91459362,11.80794648,-99999.0,'11111222,11111222,99999999' 
TABS,ioos:station:wmo:42048:1,2006-06-04T10:00:00Z,27.9396,-96.8429,2.0,56.79195238,11.21088757,-99999.0,'11111222,11111222,99999999' 
TABS,ioos:station:wmo:42048:1,2006-06-04T10:30:00Z,27.9396,-96.8429,2.0,59.33480982,12.50927656,-99999.0,'11111222,11111222,99999999' 
TABS,ioos:station:wmo:42048:1,2006-06-04T11:00:00Z,27.9396,-96.8429,2.0,53.10331444,12.79200141,-99999.0,'11111222,11111222,99999999' 
TABS,ioos:station:wmo:42048:1,2006-06-04T11:30:00Z,27.9396,-96.8429,2.0,57.86949376,12.1274647,-99999.0,'11111222,11111222,99999999' 
TABS,ioos:station:wmo:42048:1,2006-06-04T12:00:00Z,27.9396,-96.8429,2.0,52.83811474,11.77015293,-99999.0,'11111222,11111222,99999999' 
TABS,ioos:station:wmo:42048:1,2006-06-04T12:30:00Z,27.9396,-96.8429,2.0,47.12603767,12.38996772,-99999.0,'11111222,11111222,99999999' 
TABS,ioos:station:wmo:42048:1,2006-06-04T13:00:00Z,27.9396,-96.8429,2.0,53.09561064,13.25600241,-99999.0,'11111222,11111222,99999999' 
TABS,ioos:station:wmo:42048:1,2006-06-04T13:30:00Z,27.9396,-96.8429,2.0,56.90196543,12.61732935,-99999.0,'11111222,11111222,99999999' 
TABS,ioos:station:wmo:42048:1,2006-06-04T14:00:00Z,27.9396,-96.8429,2.0,57.0372794,11.79942371,-99999.0,'11111222,11111222,99999999' 
TABS,ioos:station:wmo:42048:1,2006-06-04T14:30:00Z,27.9396,-96.8429,2.0,60.23102053,11.76221493,-99999.0,'11111222,11111222,99999999' 
TABS,ioos:station:wmo:42048:1,2006-06-04T15:00:00Z,27.9396,-96.8429,2.0,58.60911221,11.9606438,-99999.0,'11111222,11111222,99999999' 
TABS,ioos:station:wmo:42048:1,2006-06-04T15:30:00Z,27.9396,-96.8429,2.0,75.24589951,11.03381167,-99999.0,'11111222,11111222,99999999' 
TABS,ioos:station:wmo:42048:1,2006-06-04T16:00:00Z,27.9396,-96.8429,2.0,64.31896234,9.276313923,-99999.0,'11133222,11111222,99999999' 
TABS,ioos:station:wmo:42048:1,2006-06-04T16:30:00Z,27.9396,-96.8429,2.0,69.8904707,10.06350337,-99999.0,'11111222,11111222,99999999' 
TABS,ioos:station:wmo:42048:1,2006-06-04T17:00:00Z,27.9396,-96.8429,2.0,79.25255481,10.18872416,-99999.0,'11111222,11111222,99999999' 
TABS,ioos:station:wmo:42048:1,2006-06-04T17:30:00Z,27.9396,-96.8429,2.0,81.34747844,6.51413847,-99999.0,'11133222,11111222,99999999' 
TABS,ioos:station:wmo:42048:1,2006-06-04T18:30:00Z,27.9396,-96.8429,2.0,121.192746,9.866392451,-99999.0,'11133222,11111222,99999999' 
TABS,ioos:station:wmo:42048:1,2006-06-04T19:00:00Z,27.9396,-96.8429,2.0,116.0020308,10.01359576,-99999.0,'11111222,11111222,99999999' 
TABS,ioos:station:wmo:42048:1,2006-06-04T19:30:00Z,27.9396,-96.8429,2.0,127.8811412,8.045253259,-99999.0,'11133222,11111222,99999999' 
TABS,ioos:station:wmo:42048:1,2006-06-04T20:00:00Z,27.9396,-96.8429,2.0,113.694161,6.071836625,-99999.0,'11133222,11111222,99999999' 
TABS,ioos:station:wmo:42048:1,2006-06-04T20:30:00Z,27.9396,-96.8429,2.0,95.46019982,1.366199107,-99999.0,'11133222,11111222,99999999' 
TABS,ioos:station:wmo:42048:1,2006-06-04T21:00:00Z,27.9396,-96.8429,2.0,92.97669251,2.503377718,-99999.0,'11133222,11111222,99999999' 
TABS,ioos:station:wmo:42048:1,2006-06-04T21:30:00Z,27.9396,-96.8429,2.0,86.03209114,1.734156856,-99999.0,'11133222,11111222,99999999' 
TABS,ioos:station:wmo:42048:1,2006-06-04T22:00:00Z,27.9396,-96.8429,2.0,41.68917146,0.857029754,-99999.0,'11133222,11111222,99999999' 
TABS,ioos:station:wmo:42048:1,2006-06-04T22:30:00Z,27.9396,-96.8429,2.0,169.4790298,0.7119691,-99999.0,'11133222,11111222,99999999' 
TABS,ioos:station:wmo:42048:1,2006-06-04T23:00:00Z,27.9396,-96.8429,2.0,17.51881307,4.152601594,-99999.0,'11133222,11111222,99999999' 
TABS,ioos:station:wmo:42048:1,2006-06-04T23:30:00Z,27.9396,-96.8429,2.0,354.1916523,5.236888389,-99999.0,'11133222,11111222,99999999' 
TABS,ioos:station:wmo:42048:1,2006-06-05T00:00:00Z,27.9396,-96.8429,2.0,355.3979535,12.08897845,-99999.0,'11111222,11111222,99999999' 
TABS,ioos:station:wmo:42048:1,2006-06-05T00:30:00Z,27.9396,-96.8429,2.0,356.663135,10.30747787,-99999.0,'11111222,11111222,99999999' 
TABS,ioos:station:wmo:42048:1,2006-06-05T01:00:00Z,27.9396,-96.8429,2.0,348.3422588,13.55971976,-99999.0,'11111222,11111222,99999999' 
TABS,ioos:station:wmo:42048:1,2006-06-05T01:30:00Z,27.9396,-96.8429,2.0,9.254232508,14.92423867,-99999.0,'11111222,11111222,99999999' 
TABS,ioos:station:wmo:42048:1,2006-06-05T02:00:00Z,27.9396,-96.8429,2.0,7.624738286,12.66194693,-99999.0,'11111222,11111222,99999999' 
TABS,ioos:station:wmo:42048:1,2006-06-05T02:30:00Z,27.9396,-96.8429,2.0,18.30974297,14.45164351,-99999.0,'11111222,11111222,99999999' 